Location: 5810 Zion Rd, Cleves, OH 45002, USA
(39.1922°N, 84.7113°W)
Time: 18:03:10
(UTC-05:00)

SEEDS - Visible Passes

Search period start: 27 January 2020 00:00
Search period end: 06 February 2020 00:00
Orbit: 586 x 603 km, 97.5° (Epoch: 27 January)

Date Brightness Start Highest point End Pass type
(mag) Time Alt. Az. Time Alt. Az. Time Alt. Az.
27 Jan ? 06:38:07 10° N 06:42:17 65° WNW 06:46:24 10° SSW visible
28 Jan ? 05:14:07 10° ENE 05:15:52 12° E 05:17:36 10° ESE visible
28 Jan ? 06:47:43 10° N 06:51:47 49° WNW 06:55:48 10° SSW visible
29 Jan ? 05:22:53 10° NE 05:25:29 16° E 05:28:03 10° SE visible
29 Jan ? 06:57:22 10° N 07:01:16 38° WNW 07:05:07 10° SW visible
30 Jan ? 05:31:57 10° NE 05:35:05 20° E 05:38:12 10° SE visible
30 Jan ? 07:07:05 10° N 07:10:44 30° WNW 07:14:22 10° SW visible
31 Jan ? 05:41:09 10° NE 05:44:40 26° E 05:48:10 10° SSE visible
31 Jan ? 07:16:50 10° NNW 07:20:11 24° WNW 07:23:31 10° WSW visible
01 Feb ? 05:50:27 10° NNE 05:54:15 33° E 05:58:01 10° SSE visible
02 Feb ? 05:59:48 10° NNE 06:03:49 43° E 06:07:46 10° S visible
02 Feb ? 18:25:45 10° SSW 18:29:12 24° W 18:32:40 10° NW visible
03 Feb ? 06:09:14 10° NNE 06:13:22 57° E 06:17:26 10° S visible
03 Feb ? 18:35:45 10° SW 18:38:47 19° W 18:41:49 10° NW visible
04 Feb ? 06:18:42 10° NNE 06:22:53 76° ESE 06:27:02 10° S visible
04 Feb ? 18:45:58 10° SW 18:48:23 15° W 18:50:49 10° WNW visible
05 Feb ? 06:28:13 10° N 06:32:24 83° WNW 06:36:33 10° SSW visible
05 Feb ? 18:56:37 10° WSW 18:58:00 11° W 18:59:24 10° WNW visible
